Regional Weather Roundup
Issued by NWS Little Rock, AR

Home | Current Version | Previous Version | Graphics & Text | Print | Product List | Glossary On
Versions: 1 2 3 4 5 6 7 8 9 10 11 12 13 14 15 16 17 18 19 20 21 22 23 24 25 26 27 28 29 30 31 32 33 34 35 36 37 38 39 40 41 42 43 44 45 46 47 48 49 50
000
ASUS44 KLZK 020605
RWRLZK

WEATHER ROUNDUP FOR ARKANSAS
NATIONAL WEATHER SERVICE LITTLE ROCK AR
1200 AM CST FRI DEC 02 2016

NOTE: "FAIR" INDICATES FEW OR NO CLOUDS BELOW 12,000 FEET WITH NO
SIGNIFICANT WEATHER AND/OR OBSTRUCTIONS TO VISIBILITY.

ARZ001-003-010-029-020700-
NORTHWEST ARKANSAS

CITY           SKY/WX    TMP DP  RH WIND       PRES   REMARKS
FAYETTEVILLE   CLEAR     30  27  88 CALM      30.12R
6HR MIN TEMP:  29; 6HR MAX TEMP:  39;

FORT SMITH     CLEAR     39  30  70 CALM      30.13R
6HR MIN TEMP:  38; 6HR MAX TEMP:  49;

HARRISON       CLEAR     39  25  57 CALM      30.12R
6HR MIN TEMP:  37; 6HR MAX TEMP:  49;

BENTONVILLE    CLEAR     34  25  69 CALM      30.11S
6HR MIN TEMP:  34; 6HR MAX TEMP:  46;

ROGERS         CLEAR     35  30  82 E5        30.12R WCI  31
6HR MIN TEMP:  35; 6HR MAX TEMP:  47;

SILOAM SPGS    CLEAR     39  25  56 SE6       30.10R
6HR MIN TEMP:  37; 6HR MAX TEMP:  48;

HIGHFILL       CLEAR     35  24  64 NE3       30.10R
6HR MIN TEMP:  33; 6HR MAX TEMP:  44;

$$

ARZ004-005-016-020700-
NORTH CENTRAL ARKANSAS

CITY           SKY/WX    TMP DP  RH WIND       PRES   REMARKS
BATESVILLE     CLEAR     39  27  60 CALM      30.14R
6HR MIN TEMP:  37; 6HR MAX TEMP:  48;

FLIPPIN        CLEAR     36  25  64 CALM      30.10R
6HR MIN TEMP:  32; 6HR MAX TEMP:  45;

MTN HOME       CLEAR     38  26  62 CALM      30.12R
6HR MIN TEMP:  37; 6HR MAX TEMP:  47;

$$

ARZ040-041-020700-
WEST CENTRAL ARKANSAS

CITY           SKY/WX    TMP DP  RH WIND       PRES   REMARKS
MENA           CLEAR     34  34 100 CALM      30.14R
MOUNT IDA      CLEAR     34  30  85 CALM      30.12R
6HR MIN TEMP:  34; 6HR MAX TEMP:  53;

$$

ARZ009-017-025-026-028-020700-
NORTHEAST ARKANSAS

CITY           SKY/WX    TMP DP  RH WIND       PRES   REMARKS
CORNING        FAIR      37  36  93 N6        30.14R
JONESBORO      CLEAR     35  32  88 CALM      30.13R
6HR MIN TEMP:  35; 6HR MAX TEMP:  42;

NEWPORT        CLEAR     40  32  73 SW6       30.14R
6HR MIN TEMP:  39; 6HR MAX TEMP:  48;

WALNUT RIDGE   CLEAR     37  30  75 SW5       30.13R
6HR MIN TEMP:  37; 6HR MAX TEMP:  46;

BLYTHEVILLE    CLEAR     40  30  67 S6        30.14R
6HR MIN TEMP:  39; 6HR MAX TEMP:  45;

$$

ARZ022-023-033-042-044-020700-
CENTRAL ARKANSAS

CITY           SKY/WX    TMP DP  RH WIND       PRES   REMARKS
LITTLE ROCK    CLEAR     38  33  82 SW6       30.16R
6HR MIN TEMP:  35; 6HR MAX TEMP:  50;

JACKSONVILLE   CLEAR     33  30  90 CALM      30.15R
6HR MIN TEMP:  32; 6HR MAX TEMP:  45;

SEARCY         CLEAR     34  32  92 CALM      30.17R
6HR MIN TEMP:  33; 6HR MAX TEMP:  45;

HOT SPRINGS    CLEAR     37  33  85 CALM      30.16R
6HR MIN TEMP:  36; 6HR MAX TEMP:  52;

RUSSELLVILLE   CLEAR     33  31  92 CALM      30.14R
6HR MIN TEMP:  33; 6HR MAX TEMP:  44;

$$

ARZ036-020700-
EAST ARKANSAS

CITY           SKY/WX    TMP DP  RH WIND       PRES   REMARKS
WEST MEMPHIS   CLEAR     40  30  67 S6        30.13S
6HR MIN TEMP:  36; 6HR MAX TEMP:  47;

$$

ARZ050-053-066-070-073-020700-
SOUTHWEST ARKANSAS

CITY           SKY/WX    TMP DP  RH WIND       PRES   REMARKS
ARKADELPHIA    FAIR      35  35 100 CALM      30.17R
6HR MIN TEMP:  35; 6HR MAX TEMP:  46;

CAMDEN         CLEAR     36  32  87 CALM      30.17R
TEXARKANA      CLEAR     48  29  47 S5        30.14R
6HR MIN TEMP:  47; 6HR MAX TEMP:  53;

EL DORADO      CLEAR     36  34  92 CALM      30.16R
6HR MIN TEMP:  36; 6HR MAX TEMP:  46;

DE QUEEN       PTCLDY    33  33 100 CALM      30.13R
6HR MIN TEMP:  33; 6HR MAX TEMP:  46;

$$

ARZ056-057-069-020700-
SOUTHEAST ARKANSAS

CITY           SKY/WX    TMP DP  RH WIND       PRES   REMARKS
PINE BLUFF     PTCLDY    37  34  89 CALM      30.16R
6HR MIN TEMP:  37; 6HR MAX TEMP:  51;

STUTTGART      CLEAR     41  30  65 S7        30.16R
6HR MIN TEMP:  39; 6HR MAX TEMP:  50;

MONTICELLO     PTCLDY    45  31  58 S5        30.16R
6HR MIN TEMP:  39; 6HR MAX TEMP:  49;


$$





USA.gov is the U.S. government's official web portal to all federal, state and local government web resources and services.